Blythe, CA

10:21 PM PDT on March 26, 2017 (GMT -0700)
Blythe

Weather History for KBLH - November, 2012

Change the Weather History Date:

Saturday, November 10, 2012

  Actual Average Record
Temperature  
Mean Temperature 54 °F -  
Max Temperature 64 °F 75 °F 89 °F (1980)
Min Temperature 45 °F 50 °F 39 °F (2010)
Degree Days  
Heating Degree Days 10    
Growing Degree Days 4 (Base 50)    
Moisture  
Dew Point 26 °F    
Average Humidity 35    
Maximum Humidity 53    
Minimum Humidity 21    
Precipitation  
Precipitation 0.00 in - - ()
Sea Level Pressure  
Sea Level Pressure 29.98 in    
Wind  
Wind Speed 4 mph (WNW)    
Max Wind Speed 14 mph    
Max Gust Speed 21 mph    
Visibility 10 miles    
Events      
Averages and records for this station are not official NWS values.
T = Trace of Precipitation, MM = Missing Value Source: NWS Daily Summary

Daily Weather History Graph

Daily Weather History Graph

Search for Another Location

Airport or City:

Trip Planner

Search our weather history database for the weather conditions in past years. The results will help you decide how hot, cold, wet, or windy it might be!

Date:

Astronomy

Nov. 10, 2012 Rise Set
Actual Time 6:06 AM PST 4:38 PM PST
Civil Twilight 5:40 AM PST 5:05 PM PST
Nautical Twilight 5:10 AM PST 5:34 PM PST
Astronomical Twilight 4:41 AM PST 6:04 PM PST
Moon 2:25 AM PST (11/10) 2:20 PM PST (11/10)
Length of Visible Light 11h 24m
Length of Day
10h 32m
Waning Crescent, 13% of the Moon is Illuminated
Nov 10
Waning Crescent
Nov 13
New
Nov 20
First Quarter
Nov 28
Full
Dec 6
Last Quarter

Hourly Weather History & Observations

Time (PST) Temp. Windchill Dew Point Humidity Pressure Visibility Wind Dir Wind Speed Gust Speed Precip Events Conditions
12:52 AM 53.1 °F - 30.0 °F 41% 29.87 in 10.0 mi Calm Calm - N/A   Clear
1:52 AM 51.1 °F - 30.9 °F 46% 29.88 in 10.0 mi WSW 6.9 mph - N/A   Clear
2:52 AM 50.0 °F - 30.9 °F 48% 29.89 in 10.0 mi WSW 5.8 mph - N/A   Clear
3:52 AM 48.9 °F - 30.9 °F 50% 29.90 in 10.0 mi West 5.8 mph - N/A   Clear
4:52 AM 48.0 °F - 28.9 °F 48% 29.91 in 10.0 mi North 3.5 mph - N/A   Clear
5:52 AM 45.0 °F 43.5 °F 28.9 °F 53% 29.94 in 10.0 mi WNW 3.5 mph - N/A   Clear
6:52 AM 46.9 °F - 28.0 °F 48% 29.96 in 10.0 mi West 5.8 mph - N/A   Clear
7:52 AM 50.0 °F - 30.0 °F 46% 29.99 in 10.0 mi Calm Calm - N/A   Clear
8:52 AM 55.0 °F - 30.0 °F 38% 30.01 in 10.0 mi Calm Calm - N/A   Clear
9:52 AM 59.0 °F - 28.0 °F 31% 30.01 in 10.0 mi Calm Calm - N/A   Clear
10:52 AM 61.0 °F - 28.0 °F 29% 30.00 in 10.0 mi Variable 4.6 mph - N/A   Clear
11:52 AM 63.0 °F - 28.0 °F 27% 29.97 in 10.0 mi WSW 13.8 mph 20.7 mph N/A   Clear
12:52 PM 64.0 °F - 25.0 °F 23% 29.94 in 10.0 mi West 12.7 mph - N/A   Scattered Clouds
1:52 PM 64.9 °F - 24.1 °F 21% 29.94 in 10.0 mi West 10.4 mph - N/A   Overcast
2:52 PM 61.0 °F - 28.0 °F 29% 29.95 in 10.0 mi Calm Calm - 0.00 in   Mostly Cloudy
3:52 PM 61.0 °F - 26.1 °F 26% 29.96 in 10.0 mi Calm Calm - N/A   Clear
4:52 PM 59.0 °F - 27.0 °F 29% 29.96 in 10.0 mi SW 4.6 mph - N/A   Scattered Clouds
5:52 PM 55.0 °F - 26.1 °F 33% 29.99 in 10.0 mi Calm Calm - N/A   Clear
6:52 PM 55.0 °F - 26.1 °F 33% 30.01 in 10.0 mi North 3.5 mph - N/A   Clear
7:52 PM 55.0 °F - 19.0 °F 24% 30.03 in 10.0 mi NW 11.5 mph - N/A   Clear
8:52 PM 53.1 °F - 18.0 °F 25% 30.06 in 10.0 mi North 6.9 mph - N/A   Clear
9:52 PM 52.0 °F - 18.0 °F 26% 30.09 in 10.0 mi Calm Calm - N/A   Clear
10:52 PM 48.9 °F - 19.9 °F 32% 30.10 in 10.0 mi Variable 3.5 mph - N/A   Clear
11:52 PM 48.9 °F - 19.9 °F 32% 30.12 in 10.0 mi NNW 4.6 mph - N/A   Clear